Weather History for KVTN - March, 2014

Change the Weather History Date:

Sunday, March 16, 2014

  Actual Average Record
Temperature  
Mean Temperature 39 °F 36 °F  
Max Temperature 56 °F 49 °F 84 °F (2012)
Min Temperature 22 °F 23 °F -18 °F (1906)
Degree Days  
Heating Degree Days 26 29  
Month to date heating degree days 524 499  
Since 1 July heating degree days 6002 5735  
Cooling Degree Days 0 0  
Month to date cooling degree days 0 0  
Year to date cooling degree days 0 0  
Moisture  
Dew Point 24 °F    
Average Humidity 61    
Maximum Humidity 92    
Minimum Humidity 30    
Precipitation  
Precipitation T in 0.04 in 0.67 in (1946)
Month to date precipitation 0.31 0.47  
Year to date precipitation 0.97 1.21  
Snow  
Snow T in 0.20 in 5.60 in (1984)
Month to date snowfall 3.5 3.6  
Since 1 July snowfall 30.0 25.7  
Snow Depth 0.00 in    
Sea Level Pressure  
Sea Level Pressure 30.23 in    
Wind  
Wind Speed 9 mph (SSW)    
Max Wind Speed 17 mph    
Max Gust Speed 24 mph    
Visibility 10 miles    
Events      
T = Trace of Precipitation, MM = Missing Value Source: NWS Daily Summary

Daily Weather History Graph

Daily Weather History Graph

Search for Another Location

Airport or City:

Trip Planner

Search our weather history database for the weather conditions in past years. The results will help you decide how hot, cold, wet, or windy it might be!

Date:

Astronomy

Mar. 16, 2014 Rise Set
Actual Time 7:52 AM CDT 7:49 PM CDT
Civil Twilight 7:24 AM CDT 8:18 PM CDT
Nautical Twilight 6:51 AM CDT 8:51 PM CDT
Astronomical Twilight 6:17 AM CDT 9:24 PM CDT
Moon 8:10 PM CDT (3/16) 7:36 AM CDT (3/16)
Length of Visible Light 12h 53m
Length of Day
11h 57m
Full, 100% of the Moon is Illuminated
Mar 16
Full
Mar 16
Full
Mar 23
Last Quarter
Mar 30
New
Apr 7
First Quarter

Hourly Weather History & Observations

Time (CDT) Temp. Windchill Dew Point Humidity Pressure Visibility Wind Dir Wind Speed Gust Speed Precip Events Conditions
12:52 AM 24.1 °F 13.1 °F 21.0 °F 88% 30.47 in 6.0 mi NNE 11.5 mph - N/A   Overcast
1:52 AM 23.0 °F 14.7 °F 19.9 °F 88% 30.47 in 5.0 mi NNE 6.9 mph - N/A   Overcast
2:52 AM 23.0 °F 15.8 °F 19.9 °F 88% 30.46 in 9.0 mi North 5.8 mph - N/A   Overcast
3:52 AM 23.0 °F - 19.0 °F 85% 30.45 in 10.0 mi Calm Calm - N/A   Overcast
4:52 AM 23.0 °F 18.4 °F 19.0 °F 85% 30.43 in 10.0 mi ENE 3.5 mph - N/A   Overcast
5:52 AM 21.9 °F 17.2 °F 19.0 °F 89% 30.43 in 10.0 mi East 3.5 mph - N/A   Overcast
6:52 AM 23.0 °F - 19.0 °F 85% 30.43 in 10.0 mi Calm Calm - N/A   Overcast
7:52 AM 24.1 °F - 19.9 °F 84% 30.43 in 10.0 mi Calm Calm - N/A   Overcast
8:08 AM 24.8 °F - 19.4 °F 80% 30.32 in 10.0 mi Calm Calm - N/A   Overcast
8:52 AM 24.1 °F 16.0 °F 21.0 °F 88% 30.42 in 10.0 mi SSW 6.9 mph - N/A   Overcast
9:52 AM 26.1 °F 17.6 °F 21.9 °F 84% 30.41 in 10.0 mi WSW 8.1 mph - N/A   Overcast
10:47 AM 28.4 °F 20.4 °F 23.0 °F 80% 30.27 in 10.0 mi SW 8.1 mph - N/A   Overcast
10:52 AM 28.0 °F 18.6 °F 23.0 °F 81% 30.37 in 10.0 mi SSW 10.4 mph - N/A   Overcast
11:33 AM 30.2 °F 21.3 °F 24.8 °F 80% 30.27 in 10.0 mi SSW 10.4 mph - N/A   Overcast
11:52 AM 32.0 °F 24.2 °F 25.0 °F 75% 30.34 in 10.0 mi South 9.2 mph - N/A   Overcast
12:09 PM 33.8 °F 28.6 °F 24.8 °F 70% 30.23 in 10.0 mi SSW 5.8 mph - N/A   Scattered Clouds
12:52 PM 41.0 °F 33.1 °F 25.0 °F 53% 30.25 in 10.0 mi SSW 15.0 mph 19.6 mph N/A   Clear
1:52 PM 44.1 °F 37.1 °F 24.1 °F 45% 30.20 in 10.0 mi SSW 15.0 mph 20.7 mph N/A   Clear
2:52 PM 48.9 °F - 24.1 °F 38% 30.14 in 10.0 mi SSW 13.8 mph 19.6 mph N/A   Clear
3:52 PM 52.0 °F - 24.1 °F 34% 30.08 in 10.0 mi SSW 12.7 mph 20.7 mph N/A   Clear
4:52 PM 54.0 °F - 24.1 °F 31% 30.04 in 10.0 mi WSW 9.2 mph 20.7 mph N/A   Clear
5:52 PM 55.9 °F - 25.0 °F 30% 29.99 in 10.0 mi WSW 12.7 mph - N/A   Clear
6:52 PM 54.0 °F - 28.9 °F 38% 29.96 in 10.0 mi SW 6.9 mph - N/A   Clear
7:52 PM 46.0 °F 41.4 °F 28.0 °F 50% 29.94 in 10.0 mi South 9.2 mph - N/A   Clear
8:52 PM 46.0 °F 41.4 °F 30.0 °F 54% 29.93 in 10.0 mi SSW 9.2 mph - N/A   Clear
9:52 PM 46.9 °F - 30.0 °F 52% 29.90 in 10.0 mi SSW 12.7 mph - N/A   Partly Cloudy
10:52 PM 46.0 °F 39.9 °F 30.0 °F 54% 29.88 in 10.0 mi SSW 13.8 mph - N/A   Clear
11:52 PM 45.0 °F 38.5 °F 30.0 °F 56% 29.84 in 10.0 mi SW 13.8 mph - N/A   Clear